Stations météo

Publicité
Strasbourg, France (7190): Température de l'air & dewpoint: 17.02.2017 01:00:00 - 23.02.2017 01:00:00 (CET)Strasbourg, France (7190): Température de l'air 5cm: 17.02.2017 01:00:00 - 23.02.2017 01:00:00 (CET)Strasbourg, France (7190): Température de l'air -20cm & Température de l'air -100cm: 17.02.2017 01:00:00 - 23.02.2017 01:00:00 (CET)Strasbourg, France (7190): Vitesse du vent & gusts: 17.02.2017 01:00:00 - 23.02.2017 01:00:00 (CET)Strasbourg, France (7190): Direction du vent: 17.02.2017 01:00:00 - 23.02.2017 01:00:00 (CET)Strasbourg, France (7190): reduced air pressure: 17.02.2017 01:00:00 - 23.02.2017 01:00:00 (CET)Strasbourg, France (7190): visibility: 17.02.2017 01:00:00 - 23.02.2017 01:00:00 (CET)Strasbourg, France (7190): Ensoleillement: 17.02.2017 01:00:00 - 23.02.2017 01:00:00 (CET)Strasbourg, France (7190): Quantités de précipitations: 17.02.2017 01:00:00 - 23.02.2017 01:00:00 (CET)
Date & Time tt [°C] td [°C] tt 5cm [°C] tt -20cm [°C] tt -100cm [°C] ff [km/h] ff [knt] fx [km/h] fx [knt] dd ppp [hPa] vv [km] sd [min] rr [mm]
23.02.2017 01:00:00 9,8 5,0 9,4 7,7 5,6 13 7 36 19 SW 1014,5 60 0 0,0
23.02.2017 00:00:00 10,0 5,0 9,4 7,8 5,6 22 12 51 28 WSW 1014,5 59 0 0,0
22.02.2017 23:00:00 9,8 5,0 9,1 7,8 5,6 27 14 40 22 WSW 1015,2 58 0 0,0
22.02.2017 22:00:00 9,4 5,4 9,0 7,9 5,6 29 15 49 26 SSW 1015,3 51 0 0,0
22.02.2017 21:00:00 9,5 5,9 9,2 7,9 5,6 31 17 49 26 SSW 1015,5 58 0 0,0
22.02.2017 20:00:00 9,7 6,0 9,3 8,0 5,6 26 14 45 24 SSW 1015,6 60 0 0,0
22.02.2017 19:00:00 9,6 5,9 9,0 8,0 5,6 29 15 49 26 SSW 1016,0 59 0 0,0
22.02.2017 18:00:00 9,5 6,0 9,1 8,0 5,5 28 15 49 27 SSW 1015,6 59 0 0,0
22.02.2017 17:00:00 10,5 6,1 10,5 7,9 5,5 31 17 49 27 SW 1015,4 40 1 0,0
22.02.2017 16:00:00 10,9 5,2 10,9 7,9 5,5 35 19 52 28 WSW 1016,0 31 0 0,0
22.02.2017 15:00:00 11,7 5,3 11,7 7,8 5,5 37 20 53 28 SW 1015,7 26 1 0,0
22.02.2017 14:00:00 11,4 5,7 11,5 7,7 5,5 27 15 53 29 SW 1016,7 33 0 0,0
22.02.2017 13:00:00 11,3 5,2 11,3 7,7 5,5 34 19 49 26 WSW 1017,2 23 0 0,0
22.02.2017 12:00:00 11,4 5,0 11,6 7,6 5,5 24 13 40 22 SW 1017,8 44 1 0,0
22.02.2017 11:00:00 11,9 5,3 11,7 7,5 5,5 34 18 54 29 SW 1017,2 44 0 0,0
22.02.2017 10:00:00 11,5 5,6 11,4 7,5 5,4 27 14 54 29 WSW 1017,3 18 0 0,0
22.02.2017 09:00:00 11,4 5,7 10,2 7,6 5,4 23 12 36 19 SW 1017,1 45 0 0,0
22.02.2017 08:00:00 10,6 6,0 10,1 7,6 5,4 20 11 42 23 SW 1016,9 59 0 0,0
22.02.2017 07:00:00 10,6 7,3 10,3 7,6 5,4 23 13 38 21 SSW 1016,4 60 0 0,0
22.02.2017 06:00:00 10,9 7,8 10,4 7,6 5,4 23 12 37 20 SSW 1016,6 60 0 0,0
22.02.2017 05:00:00 10,7 8,1 10,3 7,6 5,4 16 9 30 16 SSW 1017,1 60 0 0,0
22.02.2017 04:00:00 11,0 8,4 9,8 7,6 5,4 18 10 33 18 S 1017,1 60 0 0,0
22.02.2017 03:00:00 10,8 8,7 9,6 7,6 5,4 16 9 28 15 SSW 1017,9 60 0 0,2
22.02.2017 02:00:00 11,1 8,7 10,6 7,6 5,4 19 10 31 17 SSW 1018,2 60 0 0,0
22.02.2017 01:00:00 10,9 8,6 10,2 7,7 5,4 14 8 21 11 SSW 1018,7 60 0 0,0
22.02.2017 00:00:00 10,7 8,3 10,3 7,7 5,4 11 6 21 12 S 1019,0 60 0 0,0
21.02.2017 23:00:00 11,0 8,2 10,1 7,7 5,3 8 5 18 10 SW 1019,1 60 0 0,0
21.02.2017 22:00:00 10,8 8,2 9,7 7,7 5,3 8 4 15 8 SW 1019,4 60 0 0,0
21.02.2017 21:00:00 11,1 8,0 10,4 7,8 5,4 13 7 30 16 SW 1019,5 60 0 0,0
21.02.2017 20:00:00 11,6 8,6 10,8 7,7 5,3 14 8 32 17 W 1019,8 60 0 0,0
21.02.2017 19:00:00 11,9 8,7 11,6 7,6 5,3 12 6 31 17 WSW 1019,7 60 0 0,0
21.02.2017 18:00:00 12,3 8,8 12,0 7,5 5,3 17 9 30 16 WSW 1019,3 60 0 0,0
21.02.2017 17:00:00 12,7 9,5 11,8 7,3 5,3 15 8 27 14 W 1019,1 60 0 0,2
21.02.2017 16:00:00 13,3 9,4 12,6 7,1 5,3 19 11 33 18 W 1019,0 47 0 0,0
21.02.2017 15:00:00 13,9 9,1 14,0 6,8 5,2 19 10 34 18 WSW 1018,7 42 2 0,0
21.02.2017 14:00:00 14,1 9,7 14,7 6,6 5,3 21 11 36 19 W 1019,0 39 8 0,0
21.02.2017 13:00:00 12,9 9,3 12,6 6,4 5,2 22 12 39 21 W 1019,5 60 0 0,0
21.02.2017 12:00:00 12,6 8,7 13,0 6,3 5,2 23 12 36 19 W 1019,7 42 0 0,0
21.02.2017 11:00:00 11,7 9,4 10,9 6,2 5,2 9 5 19 10 SSW 1019,7 60 0 0,0
21.02.2017 10:00:00 10,6 8,9 9,5 6,1 5,2 13 7 27 15 S 1019,3 60 0 0,0
21.02.2017 09:00:00 9,6 7,7 8,8 6,1 5,2 16 9 24 13 S 1019,4 58 0 0,0
21.02.2017 08:00:00 9,2 7,3 8,2 6,1 5,2 17 9 30 16 S 1019,3 60 0 0,0
21.02.2017 07:00:00 9,2 7,3 8,1 6,1 5,2 13 7 28 15 SSW 1018,8 45 0 0,0
21.02.2017 06:00:00 8,5 6,8 8,0 6,1 5,2 7 4 26 14 S 1019,1 58 0 0,0
21.02.2017 05:00:00 8,5 6,6 7,8 6,0 5,2 13 7 36 19 S 1019,4 32 0 0,0
21.02.2017 04:00:00 8,8 6,8 7,7 6,1 5,2 19 10 32 17 S 1019,7 19 0 0,0
21.02.2017 03:00:00 8,7 6,7 7,7 6,0 5,2 19 10 37 20 S 1020,1 24 0 0,2
21.02.2017 02:00:00 9,4 7,0 7,9 6,0 5,2 20 11 31 17 S 1020,8 60 0 0,0
21.02.2017 01:00:00 8,7 6,3 8,0 6,0 5,2 11 6 27 15 S 1021,3 29 0 0,0
21.02.2017 00:00:00 8,7 6,3 8,0 6,0 5,2 14 7 24 13 S 1021,1 24 0 0,0
20.02.2017 23:00:00 8,9 6,3 7,7 6,0 5,2 16 8 29 16 SSW 1021,8 22 0 0,0
20.02.2017 22:00:00 8,4 6,2 7,4 6,0 5,2 15 8 27 14 S 1021,7 18 0 0,0
20.02.2017 21:00:00 8,2 6,2 7,2 6,0 5,1 12 6 25 13 S 1021,9 15 0 0,0
20.02.2017 20:00:00 8,1 6,1 7,2 6,0 5,1 14 8 27 14 S 1022,1 15 0 0,0
20.02.2017 19:00:00 8,5 5,9 7,2 5,9 5,1 19 10 41 22 S 1021,7 15 0 0,6
20.02.2017 18:00:00 8,9 5,8 7,4 5,9 5,1 27 14 41 22 SSW 1021,7 13 0 0,0
20.02.2017 17:00:00 9,6 5,4 9,5 5,8 5,1 21 12 32 18 SSW 1022,0 30 0 0,0
20.02.2017 16:00:00 10,3 5,5 10,2 5,7 5,1 20 11 33 18 SSW 1022,1 34 0 0,0
20.02.2017 15:00:00 10,1 5,3 10,2 5,5 5,1 19 10 35 19 SSW 1022,5 34 0 0,0
20.02.2017 14:00:00 10,3 5,5 10,3 5,3 5,1 25 13 38 21 SSW 1022,8 35 0 0,0
20.02.2017 13:00:00 10,2 5,2 10,7 5,1 5,1 27 14 39 21 SSW 1023,6 33 0 0,0
20.02.2017 12:00:00 9,7 5,3 10,2 5,0 5,1 16 8 24 13 S 1024,8 32 5 0,0
20.02.2017 11:00:00 8,3 5,0 7,7 4,9 5,1 14 8 21 12 S 1025,2 19 0 0,0
20.02.2017 10:00:00 6,6 3,9 6,5 4,9 5,1 11 6 20 11 S 1025,4 14 0 0,0
20.02.2017 09:00:00 6,0 3,7 4,8 4,9 5,1 11 6 16 9 S 1025,0 13 0 0,0
20.02.2017 08:00:00 5,0 3,0 3,3 5,0 5,1 8 4 12 7 S 1024,9 13 0 0,0
20.02.2017 07:00:00 4,4 2,4 2,7 5,0 5,0 9 5 12 7 S 1024,8 10 0 0,0
20.02.2017 06:00:00 5,2 3,0 4,6 5,0 5,1 8 5 13 7 S 1024,6 12 0 0,0
20.02.2017 05:00:00 6,0 2,8 5,2 5,1 5,0 5 3 18 10 S 1024,6 14 0 0,0
20.02.2017 04:00:00 7,0 3,1 5,9 5,1 5,0 8 4 18 10 SW 1024,4 13 0 0,0
20.02.2017 03:00:00 6,2 2,5 4,7 5,1 5,0 7 4 10 6 SSW 1024,7 19 0 0,0
20.02.2017 02:00:00 6,1 2,4 5,3 5,2 5,0 5 3 16 8 SSW 1025,2 24 0 0,0
20.02.2017 01:00:00 6,0 2,5 5,5 5,2 5,0 8 5 15 8 SSW 1025,1 20 0 0,0
20.02.2017 00:00:00 6,2 2,3 5,5 5,3 5,0 8 4 13 7 SW 1025,3 25 0 0,0
19.02.2017 23:00:00 6,1 2,2 4,7 5,4 5,0 10 6 14 8 SW 1025,1 23 0 0,0
19.02.2017 22:00:00 7,6 1,6 6,2 5,4 4,9 10 5 15 8 W 1024,7 27 0 0,0
19.02.2017 21:00:00 7,9 1,7 5,3 5,5 5,0 11 6 16 8 WSW 1024,4 26 0 0,0
19.02.2017 20:00:00 6,9 2,4 5,3 5,5 5,0 3 2 9 5 SSW 1024,2 23 0 0,0
19.02.2017 19:00:00 7,9 3,0 6,2 5,4 5,0 5 3 8 5 W 1023,7 20 0 0,0
19.02.2017 18:00:00 8,7 2,7 5,8 5,2 4,9 3 2 14 8 S 1023,4 22 28 0,0
19.02.2017 17:00:00 10,7 3,5 9,9 4,9 4,9 8 4 22 12 S 1023,0 26 47 0,0
19.02.2017 16:00:00 10,7 3,9 12,7 4,6 4,9 14 7 22 12 S 1023,2 16 60 0,0
19.02.2017 15:00:00 10,5 4,6 9,7 4,3 4,9 13 7 22 12 S 1023,7 11 38 0,0
19.02.2017 14:00:00 8,6 3,0 10,8 3,9 4,9 6 3 10 6 S 1024,8 14 2 0,0
19.02.2017 13:00:00 8,3 3,3 11,0 3,6 4,9 6 3 19 10 SE 1025,7 13 26 0,0
19.02.2017 12:00:00 7,2 3,2 9,2 3,5 4,9 7 4 16 8 S 1026,1 11 60 0,0
19.02.2017 11:00:00 4,3 1,5 5,8 3,6 4,9 4 2 12 7 SSE 1026,8 11 60 0,0
19.02.2017 10:00:00 1,9 0,7 3,6 3,7 4,9 6 4 16 8 SSW 1027,1 6 60 0,0
19.02.2017 09:00:00 0,1 -0,5 -2,6 3,9 4,9 7 4 11 6 S 1026,8 0,4 58 0,0
19.02.2017 08:00:00 -2,4 -3,0 -5,3 4,0 4,8 5 3 9 5 S 1026,5 2,9 0 0,0
19.02.2017 07:00:00 -2,1 -2,5 -5,5 4,3 4,8 3 2 8 5 WSW 1026,4 4,4 0 0,0
19.02.2017 06:00:00 -2,9 -3,6 -5,2 4,5 4,8 2 1 8 4 ESE 1026,4 2,8 0 0,0
19.02.2017 05:00:00 -1,9 -2,5 -4,4 4,7 4,8 5 3 8 4 S 1026,5 7 0 0,0
19.02.2017 04:00:00 -1,7 -2,3 -3,9 4,9 4,8 6 3 10 5 SW 1026,4 7 0 0,0
19.02.2017 03:00:00 -1,5 -2,2 -3,9 5,2 4,8 5 3 11 6 W 1026,6 6 0 0,0
19.02.2017 02:00:00 -1,0 -1,8 -3,5 5,4 4,8 2 1 10 6 W 1026,8 6 0 0,0
19.02.2017 01:00:00 -0,2 -1,2 -2,7 5,6 4,8 3 2 10 5 WNW 1027,0 6 0 0,0
19.02.2017 00:00:00 0,6 -0,6 -1,5 5,8 4,7 4 2 10 5 NW 1027,0 7 0 0,0
18.02.2017 23:00:00 0,7 -0,8 -0,5 6,0 4,7 8 4 11 6 NW 1026,9 8 0 0,0
18.02.2017 22:00:00 2,6 0,0 0,5 6,2 4,7 4 2 10 6 NW 1026,7 14 0 0,0
18.02.2017 21:00:00 3,6 0,6 0,9 6,4 4,7 9 5 13 7 N 1026,7 15 0 0,0
18.02.2017 20:00:00 5,0 1,3 2,4 6,5 4,7 9 5 13 7 N 1026,5 16 0 0,0
18.02.2017 19:00:00 6,4 1,9 3,8 6,5 4,7 9 5 11 6 N 1026,6 18 0 0,0
18.02.2017 18:00:00 8,1 2,1 7,3 6,4 4,7 9 5 20 11 N 1026,6 28 4 0,0
18.02.2017 17:00:00 8,9 2,5 9,1 6,2 4,7 13 7 29 15 N 1026,2 29 0 0,0
18.02.2017 16:00:00 10,1 2,2 11,2 5,9 4,7 8 5 17 9 NNE 1026,0 35 3 0,0
18.02.2017 15:00:00 10,1 2,2 11,5 5,5 4,7 12 7 21 11 NNE 1026,1 30 2 0,0
18.02.2017 14:00:00 11,1 3,9 14,1 5,2 4,6 11 6 25 13 ENE 1026,4 18 55 0,0
18.02.2017 13:00:00 9,6 3,8 9,6 4,9 4,6 10 6 19 10 NNE 1027,3 17 47 0,0
18.02.2017 12:00:00 8,2 3,6 10,3 4,8 4,6 5 3 25 13 E 1028,1 8 53 0,0
18.02.2017 11:00:00 7,6 4,5 9,8 4,8 4,6 5 3 13 7 NNE 1028,5 9 58 0,0
18.02.2017 10:00:00 6,2 4,5 7,7 4,9 4,6 8 5 11 6 N 1028,4 9 60 0,0
18.02.2017 09:00:00 3,5 3,4 0,1 5,1 4,6 2 1 10 6 NNE 1028,6 3,1 37 0,0
18.02.2017 08:00:00 0,9 0,5 -1,7 5,2 4,6 4 2 6 3 SW 1028,5 0,2 0 0,0
18.02.2017 07:00:00 1,3 0,9 -1,0 5,4 4,6 2 1 6 3 SW 1028,5 0,2 0 0,0
18.02.2017 06:00:00 3,5 3,1 1,4 5,5 4,6 3 2 7 4 W 1028,2 0,6 0 0,0
18.02.2017 05:00:00 3,9 3,3 1,4 5,6 4,6 0 0 8 4 N 1027,9 5 0 0,0
18.02.2017 04:00:00 4,4 3,5 2,1 5,7 4,6 4 2 5 3 N 1027,9 9 0 0,0
18.02.2017 03:00:00 5,0 4,0 4,0 5,8 4,5 0 0 8 5 N 1028,2 13 0 0,0
18.02.2017 02:00:00 5,9 4,2 3,8 5,9 4,5 2 1 5 3 NW 1028,4 17 0 0,0
18.02.2017 01:00:00 5,9 3,7 4,2 6,0 4,5 3 1 6 3 W 1028,6 26 0 0,0
18.02.2017 00:00:00 6,1 4,3 5,0 6,1 4,5 2 1 8 5 WSW 1028,6 33 0 0,0
17.02.2017 23:00:00 6,9 4,4 6,0 6,1 4,5 5 3 10 5 W 1028,6 44 0 0,0
17.02.2017 22:00:00 7,6 4,5 7,0 6,2 4,5 8 4 24 13 W 1028,5 58 0 0,0
17.02.2017 21:00:00 8,2 4,4 7,2 6,2 4,5 6 3 13 7 W 1028,3 42 0 0,0
17.02.2017 20:00:00 8,3 3,7 7,5 6,3 4,5 4 2 15 8 WSW 1028,1 55 0 0,0
17.02.2017 19:00:00 8,8 3,8 8,4 6,2 4,4 10 6 16 9 W 1027,8 60 0 0,0
17.02.2017 18:00:00 9,1 3,9 8,7 6,2 4,4 7 4 13 7 W 1027,3 60 0 0,0
17.02.2017 17:00:00 9,8 4,0 9,6 6,1 4,4 9 5 16 9 WNW 1027,2 60 4 0,0
17.02.2017 16:00:00 10,7 4,2 10,9 5,9 4,5 13 7 22 12 WNW 1027,2 50 20 0,0
17.02.2017 15:00:00 10,2 4,8 10,3 5,6 4,4 14 8 22 12 NW 1027,4 51 0 0,0
17.02.2017 14:00:00 10,0 6,0 11,4 5,3 4,4 4 2 14 8 E 1027,5 45 23 0,0
17.02.2017 13:00:00 10,3 6,4 11,0 5,1 4,4 4 2 16 9 SW 1027,9 59 25 0,0
17.02.2017 12:00:00 9,8 5,8 12,3 4,9 4,4 4 2 22 12 S 1028,4 43 56 0,0
17.02.2017 11:00:00 7,8 6,3 6,8 4,9 4,4 14 8 21 12 S 1028,5 23 13 0,0
17.02.2017 10:00:00 6,5 5,6 5,8 4,9 4,4 7 4 16 9 SSW 1028,6 20 0 0,0
17.02.2017 09:00:00 6,1 5,2 5,4 5,0 4,4 10 5 15 8 SSE 1028,2 17 0 0,4
17.02.2017 08:00:00 6,2 5,0 5,4 5,0 4,4 8 4 16 9 WSW 1028,1 7 0 1,6
17.02.2017 07:00:00 6,6 5,4 5,8 5,0 4,4 8 4 25 14 W 1028,0 10 0 1,6
17.02.2017 06:00:00 7,3 6,6 6,6 5,0 4,4 16 8 23 12 N 1027,8 3,4 0 2,0
17.02.2017 05:00:00 7,3 6,7 6,4 5,0 4,4 5 3 14 7 NNW 1027,7 5 0 0,0
17.02.2017 04:00:00 7,7 7,3 6,1 5,0 4,4 5 3 11 6 WNW 1027,8 2,0 0 0,2
17.02.2017 03:00:00 7,0 6,4 6,4 5,0 4,4 3 2 10 6 WSW 1028,4 1,7 0 0,0
17.02.2017 02:00:00 7,4 6,8 6,8 5,1 4,4 6 3 12 7 NNW 1028,5 3,2 0 0,0
17.02.2017 01:00:00 7,6 6,8 6,5 5,1 4,4 6 3 11 6 S 1028,6 4,8 0 0,0

tt = Température de l'air
td = dewpoint
tt 5cm = Température de l'air 5cm
tt -20cm = Température de l'air -20cm
tt -100cm = Température de l'air -100cm
ff = Vitesse du vent
fx = gusts
dd = Direction du vent
ppp = reduced air pressure
vv = visibility
sd = Ensoleillement
rr = Quantités de précipitations

stations d'obs. à proximité